Location: Centerville
(32.8776°N, 96.6203°W)
Time: 05:39:27
(UTC+00:00)

Cosmos 1674 - Pass Details

Date: 17 June 2021
Orbit: 494 x 515 km, 82.5° (Epoch: 29 July)

Event Time Altitude Azimuth Distance (km) Brightness Sun altitude
Exits shadow 04:15:52 28° 268° (W) 962 4.3 -25.6°
Maximum altitude 04:16:17 29° 280° (W) 945 4.3 -25.6°
Drops below altitude 10° 04:19:33 10° 342° (NNW) 1,699 6.3 -26.0°
Sets 04:21:52 0° 354° (N) 2,583 7.2 -26.3°
